RYR3349 GCTS-LEMG

Flight info

Callsign RYR3349
Flight time N/A
Altitude 34000
Route KORAL UG5 SONSO DCT NIRAL UN871 ADUBI DCT VJF
Aircraft B738/M-SDE2E3FGHIRWXY/LB1

Departure

Time N/A
Airport Tenerife Sur Airport (GCTS)

Arrival

Time 2026-05-06 11:20
Airport Málaga-Costa del Sol Airport (LEMG)
Time Latitude Longitude Altitude Speed Heading
2026-05-06 10:39 36.38548 -5.66868 23432 ft 396 kts 57°
2026-05-06 10:39 36.39921 -5.63973 23036 ft 394 kts 57°
2026-05-06 10:39 36.41308 -5.61046 22656 ft 392 kts 57°
2026-05-06 10:40 36.42685 -5.58138 22293 ft 389 kts 57°
2026-05-06 10:40 36.44050 -5.55251 21940 ft 387 kts 57°
2026-05-06 10:40 36.45408 -5.52379 21579 ft 384 kts 57°
2026-05-06 10:40 36.46746 -5.49544 21421 ft 376 kts 57°
2026-05-06 10:41 36.48059 -5.46761 21201 ft 371 kts 57°
2026-05-06 10:41 36.49312 -5.43973 20866 ft 370 kts 65°
2026-05-06 10:41 36.49994 -5.40903 20478 ft 370 kts 83°
2026-05-06 10:41 36.50038 -5.37725 20159 ft 366 kts 98°
2026-05-06 10:42 36.49656 -5.34611 19869 ft 363 kts 101°
2026-05-06 10:42 36.49238 -5.31525 19546 ft 362 kts 101°
2026-05-06 10:42 36.48819 -5.28452 19229 ft 360 kts 101°
2026-05-06 10:42 36.48407 -5.25391 18931 ft 358 kts 101°
2026-05-06 10:43 36.48004 -5.22347 18642 ft 356 kts 100°
2026-05-06 10:43 36.47607 -5.19318 18365 ft 353 kts 100°
2026-05-06 10:43 36.47219 -5.16320 17906 ft 351 kts 100°
2026-05-06 10:44 36.46442 -5.10357 17250 ft 347 kts 100°
2026-05-06 10:44 36.46058 -5.07409 16928 ft 345 kts 100°
2026-05-06 10:44 36.45675 -5.04469 16606 ft 344 kts 100°
2026-05-06 10:44 36.45293 -5.01544 16300 ft 342 kts 100°
2026-05-06 10:45 36.44913 -4.98642 15996 ft 340 kts 100°
2026-05-06 10:45 36.44539 -4.95790 15679 ft 338 kts 100°
2026-05-06 10:45 36.44157 -4.92880 15359 ft 336 kts 100°
2026-05-06 10:45 36.43781 -4.90022 15058 ft 334 kts 100°
2026-05-06 10:46 36.43409 -4.87194 14864 ft 328 kts 100°
2026-05-06 10:46 36.43051 -4.84479 14801 ft 318 kts 101°
2026-05-06 10:46 36.42698 -4.81810 14711 ft 309 kts 101°
2026-05-06 10:46 36.42351 -4.79196 14535 ft 304 kts 101°
2026-05-06 10:47 36.41825 -4.76701 14343 ft 295 kts 120°
2026-05-06 10:47 36.40590 -4.74757 14093 ft 284 kts 146°
2026-05-06 10:47 36.38913 -4.73571 13824 ft 273 kts 168°
2026-05-06 10:47 36.37086 -4.73036 13590 ft 267 kts 179°
2026-05-06 10:48 36.35280 -4.73211 13318 ft 258 kts 202°
2026-05-06 10:48 36.33667 -4.74110 13071 ft 253 kts 217°
2026-05-06 10:48 36.32347 -4.75507 12804 ft 248 kts 235°
2026-05-06 10:48 36.31408 -4.77284 12561 ft 247 kts 241°
2026-05-06 10:49 36.30517 -4.79109 12306 ft 247 kts 241°
2026-05-06 10:49 36.29627 -4.80937 12060 ft 248 kts 243°
2026-05-06 10:49 36.29094 -4.82941 11792 ft 245 kts 265°
2026-05-06 10:49 36.29173 -4.85039 11549 ft 246 kts 282°
2026-05-06 10:50 36.29800 -4.87007 11302 ft 248 kts 300°
2026-05-06 10:50 36.30954 -4.88605 11054 ft 252 kts 320°
2026-05-06 10:50 36.32519 -4.89601 10808 ft 257 kts 341°
2026-05-06 10:50 36.34306 -4.89808 10561 ft 263 kts
2026-05-06 10:51 36.36062 -4.89139 10326 ft 268 kts 25°
2026-05-06 10:51 36.37548 -4.87745 10088 ft 271 kts 47°
2026-05-06 10:51 36.38613 -4.85817 9857 ft 271 kts 57°
2026-05-06 10:51 36.39582 -4.83808 9611 ft 270 kts 57°
2026-05-06 10:52 36.40545 -4.81812 9345 ft 269 kts 57°
2026-05-06 10:52 36.41508 -4.79828 9087 ft 268 kts 57°
2026-05-06 10:52 36.42446 -4.77835 8821 ft 267 kts 65°
2026-05-06 10:52 36.42779 -4.75593 8549 ft 267 kts 96°
2026-05-06 10:53 36.42186 -4.73451 8301 ft 262 kts 127°
2026-05-06 10:53 36.40873 -4.71980 8126 ft 251 kts 156°
2026-05-06 10:53 36.39238 -4.71470 8031 ft 239 kts 185°
2026-05-06 10:53 36.37641 -4.71898 7990 ft 237 kts 208°
2026-05-06 10:54 36.36283 -4.73060 7949 ft 238 kts 230°
2026-05-06 10:54 36.35328 -4.74693 7946 ft 237 kts 240°
2026-05-06 10:54 36.34470 -4.76470 7940 ft 237 kts 242°
2026-05-06 10:54 36.33643 -4.78200 7931 ft 236 kts 242°
2026-05-06 10:55 36.32802 -4.79942 7935 ft 235 kts 241°
2026-05-06 10:55 36.31978 -4.81684 7930 ft 233 kts 248°
2026-05-06 10:55 36.31681 -4.83619 7945 ft 229 kts 274°
2026-05-06 10:55 36.32064 -4.85519 7935 ft 229 kts 296°
2026-05-06 10:56 36.33046 -4.87066 7935 ft 231 kts 320°
2026-05-06 10:56 36.34486 -4.87955 7933 ft 236 kts 345°
2026-05-06 10:56 36.36140 -4.87973 7933 ft 243 kts 11°
2026-05-06 10:56 36.37672 -4.87066 7937 ft 249 kts 37°
2026-05-06 10:57 36.38823 -4.85434 7943 ft 254 kts 54°
2026-05-06 10:57 36.39753 -4.83551 7939 ft 257 kts 58°
2026-05-06 10:57 36.40663 -4.81632 7941 ft 259 kts 58°
2026-05-06 10:57 36.41585 -4.79705 7934 ft 260 kts 57°
2026-05-06 10:58 36.42484 -4.77757 7925 ft 261 kts 66°
2026-05-06 10:58 36.42747 -4.75549 7932 ft 261 kts 99°
2026-05-06 10:58 36.42086 -4.73489 7930 ft 258 kts 130°
2026-05-06 10:58 36.40717 -4.72127 7935 ft 251 kts 161°
2026-05-06 10:59 36.39039 -4.71769 7939 ft 243 kts 190°
2026-05-06 10:59 36.37469 -4.72407 7942 ft 237 kts 215°
2026-05-06 10:59 36.36266 -4.73755 7947 ft 233 kts 237°
2026-05-06 10:59 36.35386 -4.75438 7941 ft 233 kts 242°
2026-05-06 11:00 36.34556 -4.77176 7945 ft 235 kts 242°
2026-05-06 11:00 36.33717 -4.78926 7937 ft 236 kts 242°
2026-05-06 11:00 36.32868 -4.80680 7933 ft 237 kts 242°
2026-05-06 11:00 36.32176 -4.82484 7927 ft 234 kts 261°
2026-05-06 11:01 36.32210 -4.84469 7940 ft 232 kts 285°
2026-05-06 11:01 36.32935 -4.86241 7935 ft 233 kts 310°
2026-05-06 11:01 36.34230 -4.87444 7938 ft 237 kts 335°
2026-05-06 11:01 36.35861 -4.87793 7931 ft 243 kts
2026-05-06 11:02 36.37472 -4.87134 7933 ft 249 kts 31°
2026-05-06 11:02 36.38711 -4.85620 7941 ft 254 kts 53°
2026-05-06 11:02 36.39657 -4.83763 7941 ft 256 kts 57°
2026-05-06 11:02 36.40560 -4.81858 7938 ft 257 kts 58°
2026-05-06 11:03 36.41471 -4.79947 7937 ft 258 kts 57°
2026-05-06 11:03 36.42381 -4.78027 7932 ft 259 kts 63°
2026-05-06 11:03 36.42762 -4.75862 7927 ft 260 kts 95°
2026-05-06 11:03 36.42221 -4.73750 7932 ft 258 kts 126°
2026-05-06 11:04 36.40936 -4.72267 7933 ft 252 kts 156°
2026-05-06 11:04 36.39274 -4.71755 7938 ft 245 kts 186°
2026-05-06 11:04 36.37664 -4.72267 7947 ft 238 kts 212°
2026-05-06 11:04 36.36392 -4.73546 7936 ft 235 kts 234°
2026-05-06 11:05 36.35484 -4.75223 7945 ft 234 kts 241°
2026-05-06 11:05 36.34663 -4.76941 7942 ft 236 kts 242°
2026-05-06 11:05 36.33825 -4.78695 7939 ft 237 kts 242°
2026-05-06 11:05 36.32976 -4.80450 7935 ft 238 kts 241°
2026-05-06 11:06 36.32228 -4.82239 7923 ft 236 kts 257°
2026-05-06 11:06 36.32168 -4.84230 7935 ft 232 kts 282°
2026-05-06 11:06 36.32813 -4.86053 7930 ft 233 kts 307°
2026-05-06 11:06 36.34051 -4.87343 7930 ft 236 kts 332°
2026-05-06 11:07 36.35657 -4.87805 7926 ft 242 kts 359°
2026-05-06 11:07 36.37262 -4.87192 7918 ft 249 kts 34°
2026-05-06 11:07 36.38550 -4.85759 7939 ft 251 kts 44°
2026-05-06 11:07 36.39560 -4.83975 7940 ft 254 kts 58°
2026-05-06 11:08 36.40452 -4.82070 7934 ft 256 kts 58°
2026-05-06 11:08 36.41363 -4.80161 7929 ft 257 kts 57°
2026-05-06 11:08 36.42281 -4.78246 7925 ft 259 kts 60°
2026-05-06 11:08 36.42699 -4.76008 7938 ft 280 kts 94°
2026-05-06 11:09 36.42378 -4.73589 7931 ft 288 kts 103°
2026-05-06 11:09 36.41935 -4.71157 7919 ft 288 kts 103°
2026-05-06 11:09 36.41542 -4.68732 7908 ft 285 kts 101°
2026-05-06 11:09 36.41213 -4.66318 7911 ft 282 kts 99°
2026-05-06 11:10 36.40932 -4.63917 7908 ft 280 kts 98°
2026-05-06 11:10 36.40682 -4.61526 7916 ft 280 kts 97°
2026-05-06 11:10 36.40446 -4.59110 7927 ft 284 kts 97°
2026-05-06 11:10 36.40213 -4.56668 7925 ft 284 kts 97°
2026-05-06 11:11 36.39985 -4.54256 7911 ft 278 kts 97°
2026-05-06 11:11 36.39812 -4.51911 7893 ft 267 kts 86°
2026-05-06 11:11 36.40228 -4.49712 7829 ft 260 kts 69°
2026-05-06 11:11 36.40849 -4.47570 7425 ft 270 kts 69°
2026-05-06 11:12 36.41488 -4.45374 7083 ft 272 kts 69°
2026-05-06 11:12 36.42127 -4.43154 6754 ft 274 kts 69°
2026-05-06 11:12 36.42764 -4.40922 6424 ft 275 kts 69°
2026-05-06 11:12 36.43401 -4.38673 6079 ft 277 kts 69°
2026-05-06 11:13 36.44040 -4.36416 5774 ft 275 kts 69°
2026-05-06 11:13 36.44709 -4.34235 5405 ft 269 kts 59°
2026-05-06 11:13 36.45883 -4.32518 5111 ft 256 kts 38°
2026-05-06 11:13 36.47207 -4.31082 4826 ft 249 kts 38°
2026-05-06 11:14 36.48476 -4.29694 4533 ft 243 kts 38°
2026-05-06 11:14 36.49895 -4.28666 4228 ft 232 kts 10°
2026-05-06 11:14 36.51443 -4.28672 3986 ft 220 kts 342°
2026-05-06 11:14 36.52776 -4.29490 3762 ft 209 kts 319°
2026-05-06 11:15 36.53802 -4.30714 3673 ft 208 kts 313°
2026-05-06 11:15 36.54788 -4.32040 3417 ft 208 kts 311°
2026-05-06 11:15 36.55739 -4.33372 3150 ft 204 kts 311°
2026-05-06 11:15 36.56663 -4.34675 2880 ft 197 kts 311°
2026-05-06 11:16 36.57557 -4.35935 2632 ft 191 kts 311°
2026-05-06 11:16 36.58426 -4.37160 2368 ft 186 kts 311°
2026-05-06 11:16 36.59274 -4.38355 2116 ft 182 kts 310°
2026-05-06 11:16 36.60102 -4.39519 1884 ft 178 kts 310°
2026-05-06 11:17 36.60911 -4.40658 1654 ft 174 kts 310°
2026-05-06 11:17 36.61696 -4.41764 1422 ft 165 kts 310°
2026-05-06 11:17 36.62424 -4.42788 1246 ft 149 kts 310°
2026-05-06 11:17 36.63080 -4.43711 1048 ft 141 kts 309°
2026-05-06 11:18 36.63734 -4.44632 875 ft 144 kts 309°
2026-05-06 11:18 36.64398 -4.45567 685 ft 148 kts 309°
2026-05-06 11:18 36.65090 -4.46541 505 ft 152 kts 309°
2026-05-06 11:18 36.65544 -4.47179 377 ft 154 kts 310°
2026-05-06 11:19 36.66258 -4.48200 213 ft 148 kts 310°
2026-05-06 11:19 36.66909 -4.49098 52 ft 139 kts 313°
2026-05-06 11:19 36.67384 -4.49756 47 ft 107 kts 311°
2026-05-06 11:19 36.67760 -4.50287 53 ft 68 kts 311°
2026-05-06 11:20 36.67976 -4.50474 49 ft 22 kts 342°
2026-05-06 11:20 36.68084 -4.50466 43 ft 13 kts 79°
2026-05-06 11:20 36.68046 -4.50392 43 ft 9 kts 133°
2026-05-06 11:20 36.68005 -4.50336 43 ft 8 kts 131°
2026-05-06 11:21 36.67975 -4.50293 43 ft 6 kts 132°
2026-05-06 11:21 36.67943 -4.50249 43 ft 9 kts 131°
2026-05-06 11:21 36.67911 -4.50205 44 ft 13 kts 131°
2026-05-06 11:21 36.67812 -4.50066 43 ft 17 kts 132°
2026-05-06 11:22 36.67740 -4.49964 43 ft 11 kts 131°
2026-05-06 11:22 36.67730 -4.49886 42 ft 8 kts 46°
2026-05-06 11:22 36.67782 -4.49860 41 ft 8 kts 22°
2026-05-06 11:22 36.67827 -4.49820 40 ft 8 kts 41°
2026-05-06 11:23 36.67854 -4.49790 41 ft 8 kts 42°
2026-05-06 11:23 36.67896 -4.49744 41 ft 8 kts 42°
2026-05-06 11:23 36.67937 -4.49697 41 ft 8 kts 41°
2026-05-06 11:23 36.67980 -4.49651 41 ft 8 kts 41°
2026-05-06 11:24 36.68019 -4.49599 41 ft 8 kts 61°
2026-05-06 11:24 36.68009 -4.49549 39 ft 6 kts 125°
2026-05-06 11:24 36.67983 -4.49513 41 ft 6 kts 133°
2026-05-06 11:24 36.67955 -4.49475 41 ft 6 kts 133°
2026-05-06 11:25 36.67932 -4.49444 41 ft 0 kts 132°
2026-05-06 11:25 36.67932 -4.49443 41 ft 0 kts 132°
2026-05-06 11:26 36.67931 -4.49443 41 ft 0 kts 132°
2026-05-06 11:26 36.67893 -4.49436 41 ft 7 kts 211°
2026-05-06 11:26 36.67872 -4.49452 41 ft 2 kts 212°
2026-05-06 11:27 36.67866 -4.49457 41 ft 0 kts 212°